Weather in Reno

United States     39°31′47″N   119°48′48″W
temp.,
°C
wind,
m/s
gust,
m/s
humid.,
%
clouds,
%
prec.,
mm/h
press.,
hPa
HPBL,
m
25 may, wed
wed2523:00+17nnw12290 0.0 101476
02:00+15wnw11385 0.0 101423
05:00+14wsw114152 0.0 101414
08:00+18ese013440 0.0 1014324
11:00+23ese221920 0.0 10121394
14:00+28e361442 0.0 10092888
17:00+29wsw6613100 0.0 10073480
20:00+23wsw3523100 0.0 1009468
26 may, thu
thu2623:00+19wsw23355 0.0 101170
02:00+16wsw22405 0.0 101156
05:00+15wsw224339 0.0 101142
08:00+20sw13325 0.0 1011415
11:00+26sw79185 0.0 10082944
14:00+27sw101215100 0.0 10063082
17:00+24wsw121519100 0.0 10071875
20:00+19wsw51122100 0.0 1010789
27 may, fri
fri2723:00+16wsw3324100 0.0 1013136
02:00+14wsw2225100 0.0 101371
05:00+12w222691 0.0 101362
08:00+15wnw1222100 0.0 1014300
11:00+20sw5820100 0.0 10112349
14:00+22wsw91121100 0.0 10102675
17:00+20wsw101329100 0.0 10101947
20:00+15wsw61242100 0.0 10111445
28 may, sat
sat2823:00+12ssw245397 0.0 1012470
02:00+10ssw2358100 0.0 1010135
05:00+11ssw494597 0.0 1009953
08:00+10sw5853100 0.0 1010814
11:00+12wsw41051100 0.0 10081369
14:00+14sw6134824 0.0 10071674
17:00+12wsw1016519 0.0 10061501
20:00+10w7135535 0.0 10071491
29 may, sun
sun2923:00+7w376614 0.1 1008661
02:00+6wnw47639 0.4 1009717
05:00+3nnw457263 0.5 1011292
08:00+5nw455610 0.0 1012880
11:00+9nnw672924 0.0 10102167
14:00+12n782058 0.0 10062714
17:00+8nw9957100 0.3 1008944
20:00+6n2270100 1.6 1010656